Regional Weather Roundup
Issued by NWS

Home | Current Version | Previous Version | Text Only | Print | Product List | Glossary Off
Versions: 1 2 3 4 5 6 7 8 9 10 11 12 13 14 15 16 17 18 19 20 21 22 23 24 25 26 27 28 29 30 31 32 33 34 35 36 37 38 39 40 41 42 43 44 45 46 47 48 49 50

000
ASUS43 KIND 280259
RWRIN

WEATHER ROUNDUP FOR INDIANA
NATIONAL WEATHER SERVICE INDIANAPOLIS IN
1100 PM EDT WED APR 27 2016

NOTE: "FAIR" INDICATES FEW OR NO CLOUDS BELOW 12,000 FEET WITH NO
SIGNIFICANT WEATHER AND/OR OBSTRUCTIONS TO VISIBILITY.

* - STATION DOES NOT REPORT WEATHER SUCH AS PRECIPITATION OR FOG.

+ - STATION NOT QUALITY CONTROLLED BY THE NATIONAL WEATHER SERVICE.
    USE DATA WITH CAUTION...ESPECIALLY DEWPOINT AND RELATIVE
    HUMIDITY OBSERVATIONS.

INZ001>003-010>013-019-020-280400-
NORTHWEST INDIANA

CITY           SKY/WX    TMP DP  RH WIND       PRES   REMARKS
GARY /AIRPORT/ CLOUDY    48  48 100 E9        29.83F
RENSSELAER +   CLOUDY    50  45  81 E13       29.83R
VALPARAISO     CLOUDY    50  37  61 E17       29.84F

$$

LMZ046-743>745-280400-
SOUTHERN LAKE MICHIGAN

STATION/POSITION TIME  TEMP    WIND        PRES    WAVE
                       AIR SEA DIR/SP/G            HT
                 (UTC) (F)     (DEG/KT/KT) (MB)    (FT)
BURNS HARBOR     0200   52     100/  9/ 15 1010.8R
MICHIGAN CITY    0200   54      90/ 14/ 18   N/A

$$

INZ004-005-014>016-021>024-280400-
NORTH CENTRAL INDIANA

CITY           SKY/WX    TMP DP  RH WIND       PRES   REMARKS
GOSHEN         CLOUDY    49  39  68 E5        29.89S
PERU/GRISSOM   RAIN      49  40  70 E13       29.84R
SOUTH BEND     CLOUDY    51  36  56 E13       29.89R

$$

INZ006>009-017-018-025>027-280400-
NORTHEAST INDIANA

CITY           SKY/WX    TMP DP  RH WIND       PRES   REMARKS
ANGOLA *+      CLOUDY    48  36  61 E9        29.92R
FORT WAYNE     CLOUDY    50  33  52 E15       29.88F

$$

INZ028-029-035-036-043>045-051>053-280400-
WEST CENTRAL INDIANA

CITY           SKY/WX    TMP DP  RH WIND       PRES   REMARKS
CRAWFORDSVL +  CLOUDY    55  55 100 E12       29.78S
GREENCASTLE +  CLOUDY    57  57 100 E10G20    29.77F FOG
LAFAYETTE      LGT RAIN  55  51  86 NE8       29.80R
TERRE HAUTE    LGT RAIN  62  60  93 E5        29.76R

$$

INZ030>032-037>040-046>048-054>057-064-065-280400-
CENTRAL INDIANA

CITY           SKY/WX    TMP DP  RH WIND       PRES   REMARKS
INDIANAPOLIS   TSTM      58  55  90 E13       29.79R FOG
-EAGLE CREEK   RAIN      58  55  90 E9        29.80S FOG
KOKOMO *+      CLOUDY    48  39  71 E13       29.85R
SHELBYVILLE    RAIN      59  56  89 SE7       29.82R FOG

$$

INZ033-034-041-042-049-050-058-059-280400-
EAST CENTRAL INDIANA

CITY           SKY/WX    TMP DP  RH WIND       PRES   REMARKS
MUNCIE         LGT RAIN  54  41  61 E13       29.85R

$$

INZ060-061-067>069-081>083-085>088-280400-
SOUTHWEST INDIANA

CITY           SKY/WX    TMP DP  RH WIND       PRES   REMARKS
EVANSVILLE     MOCLDY    63  61  93 SE6       29.75R
HUNTINGBURG *+ CLOUDY    63  57  82 E8        29.76F

$$

INZ062-063-066-070>080-084-089>092-280400-
SOUTH CENTRAL AND SOUTHEAST INDIANA

CITY           SKY/WX    TMP DP  RH WIND       PRES   REMARKS
BLOOMINGTON    LGT RAIN  62  60  93 SE17G24   29.76F
MADISON *+     CLOUDY    61  59  94 E3        29.86R
SEYMOUR +      CLOUDY    61  61 100 CALM      29.82R

$$





USA.gov is the U.S. government's official web portal to all federal, state and local government web resources and services.